Time,TemperatureF,DewpointF,PressureIn,WindDirection,WindDirectionDegrees,WindSpeedMPH,WindSpeedGustMPH,Humidity,HourlyPrecipIn,Conditions,Clouds,dailyrainin,SoftwareType,DateUTC
2013-03-15 00:02:00,58.4,52.6,30.03,South,185,2.0,3.0,81,0.00,,,0.00,Wunderground v.1.15,2013-03-15 07:02:00,
2013-03-15 00:07:00,58.2,52.7,30.03,South,184,2.0,3.0,82,0.00,,,0.00,Wunderground v.1.15,2013-03-15 07:07:00,
2013-03-15 00:17:00,57.9,53.1,30.02,South,180,1.0,2.0,84,0.00,,,0.00,Wunderground v.1.15,2013-03-15 07:17:00,
2013-03-15 00:22:00,57.6,53.4,30.02,South,172,2.0,2.0,86,0.00,,,0.00,Wunderground v.1.15,2013-03-15 07:22:00,
2013-03-15 00:27:00,57.3,53.5,30.02,SSE,168,2.0,2.0,87,0.00,,,0.00,Wunderground v.1.15,2013-03-15 07:27:00,
2013-03-15 00:37:00,56.8,53.6,30.02,SE,136,1.0,2.0,89,0.00,,,0.00,Wunderground v.1.15,2013-03-15 07:37:00,
2013-03-15 00:47:00,56.5,53.6,30.02,South,186,1.0,2.0,90,0.00,,,0.00,Wunderground v.1.15,2013-03-15 07:47:00,
2013-03-15 00:52:00,56.3,53.7,30.03,South,177,1.0,3.0,91,0.00,,,0.00,Wunderground v.1.15,2013-03-15 07:52:00,
2013-03-15 01:02:00,56.0,53.7,30.02,South,175,1.0,2.0,92,0.00,,,0.00,Wunderground v.1.15,2013-03-15 08:02:00,
2013-03-15 01:07:00,55.9,53.6,30.02,SE,139,1.0,2.0,92,0.00,,,0.00,Wunderground v.1.15,2013-03-15 08:07:00,
2013-03-15 01:12:00,55.8,53.5,30.02,ESE,121,1.0,1.0,92,0.00,,,0.00,Wunderground v.1.15,2013-03-15 08:12:00,
2013-03-15 01:17:00,55.7,53.7,30.02,ESE,113,1.0,1.0,93,0.00,,,0.00,Wunderground v.1.15,2013-03-15 08:17:00,
2013-03-15 01:22:00,55.6,53.6,30.02,SE,124,1.0,2.0,93,0.00,,,0.00,Wunderground v.1.15,2013-03-15 08:22:00,
2013-03-15 01:27:00,55.4,53.4,30.02,SSE,161,2.0,2.0,93,0.00,,,0.00,Wunderground v.1.15,2013-03-15 08:27:00,
2013-03-15 01:37:00,54.8,53.1,30.02,South,170,3.0,5.0,94,0.00,,,0.00,Wunderground v.1.15,2013-03-15 08:37:00,
2013-03-15 01:47:00,54.8,53.4,30.02,South,169,2.0,3.0,95,0.00,,,0.00,Wunderground v.1.15,2013-03-15 08:47:00,
2013-03-15 01:52:00,54.8,53.4,30.02,South,169,2.0,2.0,95,0.00,,,0.00,Wunderground v.1.15,2013-03-15 08:52:00,
2013-03-15 01:57:00,54.9,53.5,30.02,South,169,1.0,2.0,95,0.00,,,0.00,Wunderground v.1.15,2013-03-15 08:57:00,
2013-03-15 02:02:00,54.9,53.5,30.02,South,169,1.0,1.0,95,0.00,,,0.00,Wunderground v.1.15,2013-03-15 09:02:00,
2013-03-15 02:12:00,54.9,53.5,30.02,South,171,1.0,2.0,95,0.00,,,0.00,Wunderground v.1.15,2013-03-15 09:12:00,
2013-03-15 02:17:00,55.0,53.6,30.02,SSE,157,2.0,3.0,95,0.00,,,0.00,Wunderground v.1.15,2013-03-15 09:17:00,
2013-03-15 02:22:00,54.9,53.5,30.01,SSE,167,2.0,2.0,95,0.00,,,0.00,Wunderground v.1.15,2013-03-15 09:22:00,
2013-03-15 02:27:00,54.8,53.4,30.01,SSE,167,2.0,2.0,95,0.00,,,0.00,Wunderground v.1.15,2013-03-15 09:27:00,
2013-03-15 02:37:00,54.7,53.3,30.01,South,169,1.0,3.0,95,0.00,,,0.00,Wunderground v.1.15,2013-03-15 09:37:00,
2013-03-15 02:42:00,54.7,53.3,30.01,South,169,2.0,2.0,95,0.00,,,0.00,Wunderground v.1.15,2013-03-15 09:42:00,
2013-03-15 02:52:00,54.6,53.2,30.00,SE,134,1.0,2.0,95,0.00,,,0.00,Wunderground v.1.15,2013-03-15 09:52:00,
2013-03-15 02:57:00,54.6,53.2,30.00,SE,134,1.0,2.0,95,0.00,,,0.00,Wunderground v.1.15,2013-03-15 09:57:00,
2013-03-15 03:07:00,54.8,53.4,29.99,East,101,1.0,1.0,95,0.00,,,0.00,Wunderground v.1.15,2013-03-15 10:07:00,
2013-03-15 03:12:00,54.8,53.4,29.99,ESE,103,1.0,1.0,95,0.00,,,0.00,Wunderground v.1.15,2013-03-15 10:12:00,
2013-03-15 03:22:00,54.6,53.2,30.00,ESE,103,1.0,1.0,95,0.00,,,0.00,Wunderground v.1.15,2013-03-15 10:22:00,
2013-03-15 03:32:00,54.6,53.2,29.99,ESE,111,1.0,2.0,95,0.00,,,0.00,Wunderground v.1.15,2013-03-15 10:32:00,
2013-03-15 03:42:00,54.5,53.1,29.99,South,184,1.0,1.0,95,0.00,,,0.00,Wunderground v.1.15,2013-03-15 10:42:00,
2013-03-15 03:52:00,54.5,53.1,29.98,SE,144,1.0,1.0,95,0.00,,,0.00,Wunderground v.1.15,2013-03-15 10:52:00,
2013-03-15 03:57:00,54.5,53.1,29.98,SE,138,1.0,1.0,95,0.00,,,0.00,Wunderground v.1.15,2013-03-15 10:57:00,
2013-03-15 04:07:00,54.6,53.2,29.99,SE,138,0.0,0.0,95,0.00,,,0.00,Wunderground v.1.15,2013-03-15 11:07:00,
2013-03-15 04:12:00,54.6,53.2,29.99,SE,138,0.0,0.0,95,0.00,,,0.00,Wunderground v.1.15,2013-03-15 11:12:00,
2013-03-15 04:17:00,54.6,53.2,29.99,SE,132,0.0,2.0,95,0.00,,,0.00,Wunderground v.1.15,2013-03-15 11:17:00,
2013-03-15 04:27:00,54.5,53.1,29.99,NW,315,2.0,2.0,95,0.00,,,0.00,Wunderground v.1.15,2013-03-15 11:27:00,
2013-03-15 04:32:00,54.4,53.0,29.99,NW,316,2.0,2.0,95,0.00,,,0.00,Wunderground v.1.15,2013-03-15 11:32:00,
2013-03-15 04:42:00,54.6,53.2,29.99,NW,316,1.0,1.0,95,0.00,,,0.00,Wunderground v.1.15,2013-03-15 11:42:00,
2013-03-15 04:52:00,54.9,53.5,29.99,WNW,300,1.0,1.0,95,0.00,,,0.00,Wunderground v.1.15,2013-03-15 11:52:00,
2013-03-15 04:57:00,55.0,53.6,29.99,West,281,1.0,1.0,95,0.00,,,0.00,Wunderground v.1.15,2013-03-15 11:57:00,
2013-03-15 05:02:00,55.0,53.3,29.99,WNW,288,1.0,2.0,94,0.00,,,0.00,Wunderground v.1.15,2013-03-15 12:02:00,
2013-03-15 05:12:00,54.9,53.2,29.99,West,277,1.0,2.0,94,0.00,,,0.00,Wunderground v.1.15,2013-03-15 12:12:00,
2013-03-15 05:22:00,54.8,53.1,29.99,West,277,1.0,1.0,94,0.00,,,0.00,Wunderground v.1.15,2013-03-15 12:22:00,
2013-03-15 05:27:00,54.8,53.1,29.99,West,277,1.0,1.0,94,0.00,,,0.00,Wunderground v.1.15,2013-03-15 12:27:00,
2013-03-15 05:37:00,54.8,53.1,29.99,West,277,1.0,1.0,94,0.00,,,0.00,Wunderground v.1.15,2013-03-15 12:37:00,
2013-03-15 05:42:00,54.8,53.1,29.99,West,277,0.0,0.0,94,0.00,,,0.00,Wunderground v.1.15,2013-03-15 12:42:00,
2013-03-15 05:52:00,54.9,53.2,29.99,West,277,0.0,0.0,94,0.00,,,0.00,Wunderground v.1.15,2013-03-15 12:52:00,
2013-03-15 05:57:00,54.9,53.2,29.99,West,277,1.0,1.0,94,0.00,,,0.00,Wunderground v.1.15,2013-03-15 12:57:00,
2013-03-15 06:02:00,54.8,53.1,29.99,West,277,1.0,1.0,94,0.00,,,0.00,Wunderground v.1.15,2013-03-15 13:02:00,
2013-03-15 06:12:00,54.7,53.0,29.99,WNW,294,1.0,1.0,94,0.00,,,0.00,Wunderground v.1.15,2013-03-15 13:12:00,
2013-03-15 06:22:00,54.7,53.0,29.99,NE,49,1.0,1.0,94,0.00,,,0.00,Wunderground v.1.15,2013-03-15 13:22:00,
2013-03-15 06:27:00,54.6,52.9,29.99,NE,45,1.0,2.0,94,0.00,,,0.00,Wunderground v.1.15,2013-03-15 13:27:00,
2013-03-15 06:32:00,54.6,52.9,29.99,NE,36,1.0,1.0,94,0.00,,,0.00,Wunderground v.1.15,2013-03-15 13:32:00,
2013-03-15 06:42:00,54.4,52.7,30.00,NE,36,1.0,1.0,94,0.00,,,0.00,Wunderground v.1.15,2013-03-15 13:42:00,
2013-03-15 06:52:00,54.3,52.6,29.99,NE,36,1.0,3.0,94,0.00,,,0.00,Wunderground v.1.15,2013-03-15 13:52:00,
2013-03-15 07:02:00,54.2,52.5,30.00,NE,36,1.0,1.0,94,0.00,,,0.00,Wunderground v.1.15,2013-03-15 14:02:00,
2013-03-15 07:07:00,54.1,52.4,30.00,NE,53,1.0,3.0,94,0.00,,,0.00,Wunderground v.1.15,2013-03-15 14:07:00,
2013-03-15 07:17:00,53.9,52.5,30.00,NE,56,2.0,2.0,95,0.00,,,0.00,Wunderground v.1.15,2013-03-15 14:17:00,
2013-03-15 07:22:00,53.9,52.5,30.00,NE,56,2.0,2.0,95,0.00,,,0.00,Wunderground v.1.15,2013-03-15 14:22:00,
2013-03-15 07:27:00,53.9,52.5,30.00,ENE,61,2.0,2.0,95,0.00,,,0.00,Wunderground v.1.15,2013-03-15 14:27:00,
2013-03-15 07:37:00,53.8,52.1,29.99,ENE,62,2.0,2.0,94,0.00,,,0.00,Wunderground v.1.15,2013-03-15 14:37:00,
2013-03-15 07:47:00,54.0,52.6,29.99,ENE,65,1.0,2.0,95,0.00,,,0.00,Wunderground v.1.15,2013-03-15 14:47:00,
2013-03-15 07:52:00,53.9,52.5,29.99,ENE,73,1.0,1.0,95,0.00,,,0.00,Wunderground v.1.15,2013-03-15 14:52:00,
2013-03-15 08:02:00,53.6,52.2,30.00,NE,52,2.0,2.0,95,0.00,,,0.00,Wunderground v.1.15,2013-03-15 15:02:00,
2013-03-15 08:12:00,53.7,52.3,30.00,NE,53,1.0,1.0,95,0.00,,,0.00,Wunderground v.1.15,2013-03-15 15:12:00,
2013-03-15 08:22:00,54.0,52.6,30.01,NNE,22,1.0,1.0,95,0.00,,,0.00,Wunderground v.1.15,2013-03-15 15:22:00,
2013-03-15 08:27:00,54.3,52.9,30.01,NNE,22,1.0,1.0,95,0.00,,,0.00,Wunderground v.1.15,2013-03-15 15:27:00,
2013-03-15 08:37:00,54.8,53.1,30.01,NNE,22,1.0,2.0,94,0.00,,,0.00,Wunderground v.1.15,2013-03-15 15:37:00,
2013-03-15 08:42:00,55.0,53.3,30.01,NNE,22,1.0,1.0,94,0.00,,,0.00,Wunderground v.1.15,2013-03-15 15:42:00,
2013-03-15 08:47:00,55.2,53.2,30.01,NNE,22,1.0,1.0,93,0.00,,,0.00,Wunderground v.1.15,2013-03-15 15:47:00,
2013-03-15 08:52:00,55.4,53.4,30.01,NNE,22,1.0,1.0,93,0.00,,,0.00,Wunderground v.1.15,2013-03-15 15:52:00,
2013-03-15 08:57:00,55.7,53.4,30.01,NNE,22,1.0,1.0,92,0.00,,,0.00,Wunderground v.1.15,2013-03-15 15:57:00,
2013-03-15 09:02:00,56.0,53.7,30.01,NNE,22,1.0,1.0,92,0.00,,,0.00,Wunderground v.1.15,2013-03-15 16:02:00,
2013-03-15 09:12:00,56.5,53.6,30.00,NNE,22,1.0,1.0,90,0.00,,,0.00,Wunderground v.1.15,2013-03-15 16:12:00,
2013-03-15 09:22:00,57.7,54.5,30.00,NNE,25,0.0,0.0,89,0.00,,,0.00,Wunderground v.1.15,2013-03-15 16:22:00,
2013-03-15 09:27:00,58.5,54.6,30.01,NNE,26,1.0,1.0,87,0.00,,,0.00,Wunderground v.1.15,2013-03-15 16:27:00,
2013-03-15 09:37:00,59.9,55.1,30.01,NE,44,1.0,2.0,84,0.00,,,0.00,Wunderground v.1.15,2013-03-15 16:37:00,
2013-03-15 09:47:00,61.0,55.1,30.01,SSW,196,1.0,1.0,81,0.00,,,0.00,Wunderground v.1.15,2013-03-15 16:47:00,
2013-03-15 09:52:00,60.9,55.0,30.01,SW,228,1.0,1.0,81,0.00,,,0.00,Wunderground v.1.15,2013-03-15 16:52:00,
2013-03-15 09:57:00,61.0,54.8,30.01,SSE,161,2.0,2.0,80,0.00,,,0.00,Wunderground v.1.15,2013-03-15 16:57:00,
2013-03-15 10:07:00,61.4,55.2,30.01,West,259,1.0,3.0,80,0.00,,,0.00,Wunderground v.1.15,2013-03-15 17:07:00,
2013-03-15 10:17:00,61.8,54.9,30.01,West,264,1.0,1.0,78,0.00,,,0.00,Wunderground v.1.15,2013-03-15 17:17:00,
2013-03-15 10:27:00,62.8,55.1,30.00,ESE,122,1.0,1.0,76,0.00,,,0.00,Wunderground v.1.15,2013-03-15 17:27:00,
2013-03-15 10:37:00,63.8,55.4,30.01,South,180,1.0,4.0,74,0.00,,,0.00,Wunderground v.1.15,2013-03-15 17:37:00,
2013-03-15 10:47:00,64.3,55.1,30.01,SSW,206,1.0,3.0,72,0.00,,,0.00,Wunderground v.1.15,2013-03-15 17:47:00,
2013-03-15 10:57:00,64.8,54.8,30.01,South,173,2.0,3.0,70,0.00,,,0.00,Wunderground v.1.15,2013-03-15 17:57:00,
2013-03-15 11:02:00,65.3,55.3,30.01,WSW,241,2.0,2.0,70,0.00,,,0.00,Wunderground v.1.15,2013-03-15 18:02:00,
2013-03-15 11:07:00,66.0,55.9,30.01,SSW,198,2.0,3.0,70,0.00,,,0.00,Wunderground v.1.15,2013-03-15 18:07:00,
2013-03-15 11:12:00,66.1,55.6,30.01,WSW,240,3.0,3.0,69,0.00,,,0.00,Wunderground v.1.15,2013-03-15 18:12:00,
2013-03-15 11:22:00,66.4,56.3,30.01,South,185,2.0,3.0,70,0.00,,,0.00,Wunderground v.1.15,2013-03-15 18:22:00,
2013-03-15 11:27:00,67.2,55.9,30.00,South,177,2.0,3.0,67,0.00,,,0.00,Wunderground v.1.15,2013-03-15 18:27:00,
2013-03-15 11:37:00,68.3,56.5,30.00,SSE,148,2.0,3.0,66,0.00,,,0.00,Wunderground v.1.15,2013-03-15 18:37:00,
2013-03-15 11:47:00,69.5,56.3,30.00,SSW,196,3.0,6.0,63,0.00,,,0.00,Wunderground v.1.15,2013-03-15 18:47:00,
2013-03-15 11:57:00,69.7,56.5,29.99,SSE,161,3.0,3.0,63,0.00,,,0.00,Wunderground v.1.15,2013-03-15 18:57:00,
2013-03-15 12:07:00,71.1,56.5,29.99,South,174,2.0,3.0,60,0.00,,,0.00,Wunderground v.1.15,2013-03-15 19:07:00,
2013-03-15 12:12:00,71.4,56.3,29.99,SW,236,3.0,3.0,59,0.00,,,0.00,Wunderground v.1.15,2013-03-15 19:12:00,
2013-03-15 12:17:00,71.2,56.1,29.99,SSE,163,3.0,3.0,59,0.00,,,0.00,Wunderground v.1.15,2013-03-15 19:17:00,
2013-03-15 12:22:00,71.7,56.1,29.99,ESE,123,3.0,3.0,58,0.00,,,0.00,Wunderground v.1.15,2013-03-15 19:22:00,
2013-03-15 12:27:00,72.0,55.9,29.98,SSW,212,2.0,4.0,57,0.00,,,0.00,Wunderground v.1.15,2013-03-15 19:27:00,
2013-03-15 12:37:00,72.1,57.0,29.98,SW,216,4.0,4.0,59,0.00,,,0.00,Wunderground v.1.15,2013-03-15 19:37:00,
2013-03-15 12:42:00,72.1,56.5,29.98,SSE,163,4.0,4.0,58,0.00,,,0.00,Wunderground v.1.15,2013-03-15 19:42:00,
2013-03-15 12:52:00,71.9,56.8,29.97,SSW,192,5.0,5.0,59,0.00,,,0.00,Wunderground v.1.15,2013-03-15 19:52:00,
2013-03-15 12:57:00,72.0,56.4,29.97,South,170,5.0,5.0,58,0.00,,,0.00,Wunderground v.1.15,2013-03-15 19:57:00,
2013-03-15 13:07:00,72.6,57.4,29.96,SSE,161,4.0,4.0,59,0.00,,,0.00,Wunderground v.1.15,2013-03-15 20:07:00,
2013-03-15 13:12:00,72.8,56.7,29.96,WSW,238,3.0,3.0,57,0.00,,,0.00,Wunderground v.1.15,2013-03-15 20:12:00,
2013-03-15 13:22:00,72.3,56.7,29.96,SSE,162,5.0,5.0,58,0.00,,,0.00,Wunderground v.1.15,2013-03-15 20:22:00,
2013-03-15 13:32:00,72.4,56.8,29.95,South,180,5.0,5.0,58,0.00,,,0.00,Wunderground v.1.15,2013-03-15 20:32:00,
2013-03-15 13:37:00,72.6,57.0,29.95,SSW,204,5.0,5.0,58,0.00,,,0.00,Wunderground v.1.15,2013-03-15 20:37:00,
2013-03-15 13:47:00,72.8,56.2,29.95,SSW,200,4.0,4.0,56,0.00,,,0.00,Wunderground v.1.15,2013-03-15 20:47:00,
2013-03-15 13:57:00,72.7,56.1,29.95,SSW,200,4.0,6.0,56,0.00,,,0.00,Wunderground v.1.15,2013-03-15 20:57:00,
2013-03-15 14:07:00,71.8,55.7,29.95,SSW,209,5.0,5.0,57,0.00,,,0.00,Wunderground v.1.15,2013-03-15 21:07:00,
2013-03-15 14:12:00,72.2,56.1,29.94,SSE,161,4.0,4.0,57,0.00,,,0.00,Wunderground v.1.15,2013-03-15 21:12:00,
2013-03-15 14:17:00,73.0,56.4,29.94,SW,227,4.0,5.0,56,0.00,,,0.00,Wunderground v.1.15,2013-03-15 21:17:00,
2013-03-15 14:27:00,72.9,55.8,29.94,SW,229,5.0,7.0,55,0.00,,,0.00,Wunderground v.1.15,2013-03-15 21:27:00,
2013-03-15 14:37:00,72.5,56.4,29.93,SSW,196,5.0,6.0,57,0.00,,,0.00,Wunderground v.1.15,2013-03-15 21:37:00,
2013-03-15 14:47:00,73.3,55.1,29.93,SSW,211,4.0,6.0,53,0.00,,,0.00,Wunderground v.1.15,2013-03-15 21:47:00,
2013-03-15 14:57:00,73.2,55.0,29.93,WSW,246,5.0,5.0,53,0.00,,,0.00,Wunderground v.1.15,2013-03-15 21:57:00,
2013-03-15 15:02:00,73.1,53.9,29.93,SSW,213,4.0,6.0,51,0.00,,,0.00,Wunderground v.1.15,2013-03-15 22:02:00,
2013-03-15 15:07:00,73.7,53.9,29.93,SSE,153,4.0,6.0,50,0.00,,,0.00,Wunderground v.1.15,2013-03-15 22:07:00,
2013-03-15 15:12:00,73.9,54.6,29.93,SW,225,4.0,5.0,51,0.00,,,0.00,Wunderground v.1.15,2013-03-15 22:12:00,
2013-03-15 15:17:00,74.0,55.3,29.93,SSW,202,4.0,6.0,52,0.00,,,0.00,Wunderground v.1.15,2013-03-15 22:17:00,
2013-03-15 15:27:00,74.0,54.7,29.93,WNW,286,5.0,5.0,51,0.00,,,0.00,Wunderground v.1.15,2013-03-15 22:27:00,
2013-03-15 15:37:00,73.6,54.4,29.92,SSW,208,5.0,5.0,51,0.00,,,0.00,Wunderground v.1.15,2013-03-15 22:37:00,
2013-03-15 15:42:00,73.7,55.5,29.92,South,184,4.0,5.0,53,0.00,,,0.00,Wunderground v.1.15,2013-03-15 22:42:00,
2013-03-15 15:52:00,74.0,54.2,29.92,SW,221,4.0,4.0,50,0.00,,,0.00,Wunderground v.1.15,2013-03-15 22:52:00,
2013-03-15 15:57:00,74.0,53.1,29.93,South,188,5.0,5.0,48,0.00,,,0.00,Wunderground v.1.15,2013-03-15 22:57:00,
2013-03-15 16:07:00,73.8,53.4,29.92,SSE,167,5.0,6.0,49,0.00,,,0.00,Wunderground v.1.15,2013-03-15 23:07:00,
2013-03-15 16:17:00,73.8,54.0,29.92,SW,233,4.0,5.0,50,0.00,,,0.00,Wunderground v.1.15,2013-03-15 23:17:00,
2013-03-15 16:27:00,73.5,54.3,29.92,South,186,4.0,4.0,51,0.00,,,0.00,Wunderground v.1.15,2013-03-15 23:27:00,
2013-03-15 16:32:00,73.5,53.2,29.92,SW,214,4.0,4.0,49,0.00,,,0.00,Wunderground v.1.15,2013-03-15 23:32:00,
2013-03-15 16:37:00,73.6,53.3,29.92,SSW,207,4.0,6.0,49,0.00,,,0.00,Wunderground v.1.15,2013-03-15 23:37:00,
2013-03-15 16:47:00,73.2,54.0,29.92,SSW,205,4.0,7.0,51,0.00,,,0.00,Wunderground v.1.15,2013-03-15 23:47:00,
2013-03-15 16:52:00,73.2,53.4,29.92,South,186,4.0,4.0,50,0.00,,,0.00,Wunderground v.1.15,2013-03-15 23:52:00,
2013-03-15 17:02:00,72.9,54.8,29.92,SSE,160,4.0,4.0,53,0.00,,,0.00,Wunderground v.1.15,2013-03-16 00:02:00,
2013-03-15 17:12:00,72.2,53.6,29.92,South,176,4.0,4.0,52,0.00,,,0.00,Wunderground v.1.15,2013-03-16 00:12:00,
2013-03-15 17:22:00,71.2,54.2,29.92,SSE,161,4.0,4.0,55,0.00,,,0.00,Wunderground v.1.15,2013-03-16 00:22:00,
2013-03-15 17:27:00,71.1,53.6,29.92,SE,136,4.0,4.0,54,0.00,,,0.00,Wunderground v.1.15,2013-03-16 00:27:00,
2013-03-15 17:32:00,70.7,53.7,29.92,South,169,3.0,4.0,55,0.00,,,0.00,Wunderground v.1.15,2013-03-16 00:32:00,
2013-03-15 17:42:00,69.9,53.0,29.91,South,173,4.0,6.0,55,0.00,,,0.00,Wunderground v.1.15,2013-03-16 00:42:00,
2013-03-15 17:52:00,68.9,53.0,29.92,SSE,168,4.0,4.0,57,0.00,,,0.00,Wunderground v.1.15,2013-03-16 00:52:00,
2013-03-15 18:02:00,68.3,53.4,29.92,South,182,3.0,4.0,59,0.00,,,0.00,Wunderground v.1.15,2013-03-16 01:02:00,
2013-03-15 18:07:00,67.7,53.3,29.91,SE,136,4.0,4.0,60,0.00,,,0.00,Wunderground v.1.15,2013-03-16 01:07:00,
2013-03-15 18:12:00,67.2,54.2,29.91,SE,127,3.0,6.0,63,0.00,,,0.00,Wunderground v.1.15,2013-03-16 01:12:00,
2013-03-15 18:17:00,66.5,53.5,29.91,WSW,242,3.0,6.0,63,0.00,,,0.00,Wunderground v.1.15,2013-03-16 01:17:00,
2013-03-15 18:22:00,66.1,54.0,29.91,SE,139,4.0,4.0,65,0.00,,,0.00,Wunderground v.1.15,2013-03-16 01:22:00,
2013-03-15 18:32:00,65.3,54.1,29.92,SE,133,2.0,5.0,67,0.00,,,0.00,Wunderground v.1.15,2013-03-16 01:32:00,
2013-03-15 18:37:00,64.7,53.9,29.92,SE,130,3.0,5.0,68,0.00,,,0.00,Wunderground v.1.15,2013-03-16 01:37:00,
2013-03-15 18:47:00,63.8,53.8,29.92,SSE,159,2.0,3.0,70,0.00,,,0.00,Wunderground v.1.15,2013-03-16 01:47:00,
2013-03-15 18:57:00,62.7,53.9,29.92,South,184,3.0,3.0,73,0.00,,,0.00,Wunderground v.1.15,2013-03-16 01:57:00,
2013-03-15 19:07:00,61.7,53.3,29.93,SSE,162,3.0,4.0,74,0.00,,,0.00,Wunderground v.1.15,2013-03-16 02:07:00,
2013-03-15 19:17:00,60.9,53.3,29.93,South,186,3.0,4.0,76,0.00,,,0.00,Wunderground v.1.15,2013-03-16 02:17:00,
2013-03-15 19:22:00,60.7,53.1,29.93,SSE,159,2.0,2.0,76,0.00,,,0.00,Wunderground v.1.15,2013-03-16 02:22:00,
2013-03-15 19:32:00,60.2,53.7,29.93,SSE,156,3.0,3.0,79,0.00,,,0.00,Wunderground v.1.15,2013-03-16 02:32:00,
2013-03-15 19:37:00,59.9,53.7,29.93,SSE,149,2.0,4.0,80,0.00,,,0.00,Wunderground v.1.15,2013-03-16 02:37:00,
2013-03-15 19:47:00,59.3,53.5,29.94,South,176,2.0,2.0,81,0.00,,,0.00,Wunderground v.1.15,2013-03-16 02:47:00,
2013-03-15 19:57:00,58.6,53.5,29.94,South,174,3.0,3.0,83,0.00,,,0.00,Wunderground v.1.15,2013-03-16 02:57:00,
2013-03-15 20:02:00,58.2,53.4,29.94,South,173,3.0,3.0,84,0.00,,,0.00,Wunderground v.1.15,2013-03-16 03:02:00,
2013-03-15 20:07:00,57.9,53.4,29.94,South,185,3.0,4.0,85,0.00,,,0.00,Wunderground v.1.15,2013-03-16 03:07:00,
2013-03-15 20:12:00,57.6,53.4,29.95,South,182,3.0,3.0,86,0.00,,,0.00,Wunderground v.1.15,2013-03-16 03:12:00,
2013-03-15 20:17:00,57.3,53.1,29.95,South,175,2.0,4.0,86,0.00,,,0.00,Wunderground v.1.15,2013-03-16 03:17:00,
2013-03-15 20:22:00,56.9,53.1,29.95,South,182,3.0,3.0,87,0.00,,,0.00,Wunderground v.1.15,2013-03-16 03:22:00,
2013-03-15 20:27:00,56.7,53.2,29.95,South,172,2.0,3.0,88,0.00,,,0.00,Wunderground v.1.15,2013-03-16 03:27:00,
2013-03-15 20:32:00,56.5,53.0,29.95,South,172,2.0,2.0,88,0.00,,,0.00,Wunderground v.1.15,2013-03-16 03:32:00,
2013-03-15 20:37:00,56.3,52.8,29.95,South,172,2.0,2.0,88,0.00,,,0.00,Wunderground v.1.15,2013-03-16 03:37:00,
2013-03-15 20:47:00,56.0,52.8,29.95,South,169,1.0,2.0,89,0.00,,,0.00,Wunderground v.1.15,2013-03-16 03:47:00,
2013-03-15 20:57:00,55.7,52.8,29.95,SSE,150,1.0,2.0,90,0.00,,,0.00,Wunderground v.1.15,2013-03-16 03:57:00,
2013-03-15 21:02:00,55.6,52.7,29.95,SSE,150,1.0,1.0,90,0.00,,,0.00,Wunderground v.1.15,2013-03-16 04:02:00,
2013-03-15 21:07:00,55.5,52.9,29.95,SSE,150,1.0,1.0,91,0.00,,,0.00,Wunderground v.1.15,2013-03-16 04:07:00,
2013-03-15 21:12:00,55.4,52.8,29.95,SE,142,1.0,1.0,91,0.00,,,0.00,Wunderground v.1.15,2013-03-16 04:12:00,
2013-03-15 21:17:00,55.3,52.7,29.95,SE,128,1.0,1.0,91,0.00,,,0.00,Wunderground v.1.15,2013-03-16 04:17:00,
2013-03-15 21:27:00,55.1,52.8,29.94,SE,127,1.0,3.0,92,0.00,,,0.00,Wunderground v.1.15,2013-03-16 04:27:00,
2013-03-15 21:37:00,54.9,52.6,29.94,SE,132,2.0,2.0,92,0.00,,,0.00,Wunderground v.1.15,2013-03-16 04:37:00,
2013-03-15 21:42:00,54.8,52.5,29.95,SE,128,1.0,1.0,92,0.00,,,0.00,Wunderground v.1.15,2013-03-16 04:42:00,
2013-03-15 21:47:00,54.8,52.8,29.95,SE,130,1.0,1.0,93,0.00,,,0.00,Wunderground v.1.15,2013-03-16 04:47:00,
2013-03-15 21:57:00,54.9,52.9,29.95,ESE,117,2.0,3.0,93,0.00,,,0.00,Wunderground v.1.15,2013-03-16 04:57:00,
2013-03-15 22:02:00,54.9,52.9,29.95,SE,138,2.0,2.0,93,0.00,,,0.00,Wunderground v.1.15,2013-03-16 05:02:00,
2013-03-15 22:07:00,55.0,53.0,29.95,SE,126,2.0,2.0,93,0.00,,,0.00,Wunderground v.1.15,2013-03-16 05:07:00,
2013-03-15 22:17:00,54.8,52.8,29.95,ESE,106,2.0,3.0,93,0.00,,,0.00,Wunderground v.1.15,2013-03-16 05:17:00,
2013-03-15 22:22:00,54.6,52.9,29.95,East,98,3.0,3.0,94,0.00,,,0.00,Wunderground v.1.15,2013-03-16 05:22:00,
2013-03-15 22:32:00,54.8,53.1,29.95,East,79,1.0,5.0,94,0.00,,,0.00,Wunderground v.1.15,2013-03-16 05:32:00,
2013-03-15 22:37:00,54.8,53.1,29.95,SE,132,2.0,5.0,94,0.00,,,0.00,Wunderground v.1.15,2013-03-16 05:37:00,
2013-03-15 22:47:00,54.8,53.1,29.95,SSE,156,2.0,2.0,94,0.00,,,0.00,Wunderground v.1.15,2013-03-16 05:47:00,
2013-03-15 22:57:00,54.8,53.1,29.95,SE,140,1.0,3.0,94,0.00,,,0.00,Wunderground v.1.15,2013-03-16 05:57:00,
2013-03-15 23:07:00,54.7,53.0,29.95,ESE,117,2.0,2.0,94,0.00,,,0.00,Wunderground v.1.15,2013-03-16 06:07:00,
2013-03-15 23:17:00,54.5,52.5,29.95,SE,124,2.0,2.0,93,0.00,,,0.00,Wunderground v.1.15,2013-03-16 06:17:00,
2013-03-15 23:27:00,54.3,52.3,29.95,ESE,114,2.0,2.0,93,0.00,,,0.00,Wunderground v.1.15,2013-03-16 06:27:00,
2013-03-15 23:32:00,54.2,52.2,29.94,ESE,110,1.0,3.0,93,0.00,,,0.00,Wunderground v.1.15,2013-03-16 06:32:00,
2013-03-15 23:42:00,54.2,52.5,29.94,ESE,111,1.0,1.0,94,0.00,,,0.00,Wunderground v.1.15,2013-03-16 06:42:00,
2013-03-15 23:47:00,54.3,52.6,29.95,East,101,1.0,1.0,94,0.00,,,0.00,Wunderground v.1.15,2013-03-16 06:47:00,
2013-03-15 23:57:00,54.5,52.8,29.95,East,101,1.0,2.0,94,0.00,,,0.00,Wunderground v.1.15,2013-03-16 06:57:00,